4XPDC LFNA-LFPB

Flight info

Callsign 4XPDC
Flight time 1h 23m
Altitude 26000
Route MTL DCT ROA DCT MOU DCT BT
Aircraft B350/L-SBGRW/S

Departure

Time 2026-05-04 12:07
Airport Gap-Tallard Airfield (LFNA)

Arrival

Time 2026-05-04 13:30
Airport Paris-Le Bourget International Airport (LFPB)
Time Latitude Longitude Altitude Speed Heading
2026-05-04 12:02 44.45413 6.03621 1991 ft 0 kts 116°
2026-05-04 12:03 44.45400 6.03658 1989 ft 10 kts 101°
2026-05-04 12:03 44.45464 6.03725 1990 ft 14 kts 25°
2026-05-04 12:03 44.45560 6.03786 1995 ft 16 kts 23°
2026-05-04 12:03 44.45686 6.03861 2008 ft 13 kts 26°
2026-05-04 12:04 44.45746 6.03908 2007 ft 8 kts 69°
2026-05-04 12:04 44.45729 6.03913 2005 ft 0 kts 208°
2026-05-04 12:06 44.45650 6.03856 2004 ft 51 kts 206°
2026-05-04 12:06 44.45064 6.03448 2042 ft 120 kts 205°
2026-05-04 12:07 44.44293 6.02925 2481 ft 136 kts 202°
2026-05-04 12:07 44.43247 6.02509 2639 ft 170 kts 198°
2026-05-04 12:07 44.42403 6.01439 3267 ft 169 kts 248°
2026-05-04 12:07 44.42071 5.99834 3872 ft 173 kts 256°
2026-05-04 12:08 44.41771 5.98196 4501 ft 178 kts 256°
2026-05-04 12:08 44.41537 5.96478 5126 ft 182 kts 270°
2026-05-04 12:08 44.41997 5.94849 5734 ft 187 kts 311°
2026-05-04 12:08 44.42914 5.93500 6286 ft 195 kts 314°
2026-05-04 12:09 44.43880 5.92142 6840 ft 198 kts 315°
2026-05-04 12:09 44.44872 5.90806 7469 ft 197 kts 315°
2026-05-04 12:09 44.45869 5.89503 8075 ft 195 kts 312°
2026-05-04 12:09 44.46631 5.87978 8647 ft 188 kts 287°
2026-05-04 12:10 44.46925 5.86245 9247 ft 180 kts 270°
2026-05-04 12:10 44.47051 5.84511 9838 ft 178 kts 271°
2026-05-04 12:10 44.47195 5.82790 10327 ft 178 kts 270°
2026-05-04 12:10 44.47328 5.81049 10760 ft 180 kts 270°
2026-05-04 12:11 44.47470 5.79301 11283 ft 182 kts 270°
2026-05-04 12:11 44.47621 5.77535 11775 ft 184 kts 270°
2026-05-04 12:11 44.47772 5.75746 12291 ft 186 kts 270°
2026-05-04 12:11 44.47922 5.73943 12802 ft 187 kts 270°
2026-05-04 12:12 44.48076 5.72122 13328 ft 189 kts 270°
2026-05-04 12:12 44.48226 5.70285 13869 ft 191 kts 270°
2026-05-04 12:12 44.48378 5.68432 14321 ft 192 kts 270°
2026-05-04 12:12 44.48537 5.66565 14804 ft 193 kts 270°
2026-05-04 12:13 44.48690 5.64688 15274 ft 195 kts 270°
2026-05-04 12:14 44.49793 5.51198 18500 ft 203 kts 270°
2026-05-04 12:15 44.49956 5.49233 18909 ft 204 kts 270°
2026-05-04 12:15 44.50116 5.47253 19321 ft 205 kts 270°
2026-05-04 12:15 44.50278 5.45258 19716 ft 207 kts 271°
2026-05-04 12:15 44.50441 5.43250 20117 ft 208 kts 271°
2026-05-04 12:16 44.50602 5.41236 20515 ft 209 kts 271°
2026-05-04 12:16 44.50764 5.39214 20960 ft 210 kts 271°
2026-05-04 12:16 44.50927 5.37172 21408 ft 211 kts 271°
2026-05-04 12:16 44.51091 5.35125 21850 ft 212 kts 271°
2026-05-04 12:17 44.51257 5.33061 22247 ft 213 kts 271°
2026-05-04 12:17 44.51421 5.30991 22643 ft 214 kts 271°
2026-05-04 12:17 44.51583 5.28910 23070 ft 216 kts 271°
2026-05-04 12:17 44.51754 5.26813 23497 ft 217 kts 271°
2026-05-04 12:18 44.51920 5.24708 23868 ft 218 kts 271°
2026-05-04 12:18 44.52031 5.23308 24091 ft 219 kts 271°
2026-05-04 12:18 44.52197 5.21188 24440 ft 219 kts 271°
2026-05-04 12:18 44.52364 5.19052 24756 ft 221 kts 271°
2026-05-04 12:19 44.52532 5.16907 25089 ft 221 kts 271°
2026-05-04 12:19 44.52702 5.14753 25427 ft 222 kts 271°
2026-05-04 12:19 44.52869 5.12598 25756 ft 223 kts 271°
2026-05-04 12:19 44.53038 5.10421 25944 ft 230 kts 271°
2026-05-04 12:20 44.53217 5.08125 25950 ft 242 kts 271°
2026-05-04 12:20 44.53407 5.05727 25957 ft 252 kts 271°
2026-05-04 12:20 44.53600 5.03245 25960 ft 260 kts 271°
2026-05-04 12:20 44.53797 5.00700 25960 ft 266 kts 271°
2026-05-04 12:21 44.53998 4.98095 25959 ft 270 kts 272°
2026-05-04 12:21 44.54201 4.95453 25961 ft 274 kts 272°
2026-05-04 12:21 44.54404 4.92779 26006 ft 274 kts 271°
2026-05-04 12:21 44.54606 4.90116 26038 ft 277 kts 271°
2026-05-04 12:22 44.54810 4.87420 26044 ft 279 kts 272°
2026-05-04 12:22 44.55091 4.84707 26056 ft 285 kts 279°
2026-05-04 12:22 44.55768 4.82061 26057 ft 293 kts 291°
2026-05-04 12:22 44.56850 4.79600 26059 ft 301 kts 303°
2026-05-04 12:23 44.58327 4.77457 26061 ft 309 kts 316°
2026-05-04 12:23 44.60165 4.75772 26061 ft 317 kts 330°
2026-05-04 12:23 44.62233 4.74628 26053 ft 321 kts 337°
2026-05-04 12:23 44.64342 4.73565 26048 ft 322 kts 336°
2026-05-04 12:24 44.66421 4.72504 26055 ft 322 kts 336°
2026-05-04 12:24 44.68535 4.71434 26058 ft 323 kts 336°
2026-05-04 12:24 44.70658 4.70361 26056 ft 324 kts 336°
2026-05-04 12:24 44.72781 4.69283 26058 ft 324 kts 336°
2026-05-04 12:25 44.74898 4.68208 26053 ft 323 kts 336°
2026-05-04 12:25 44.77019 4.67130 26054 ft 324 kts 336°
2026-05-04 12:25 44.79131 4.66055 26053 ft 324 kts 336°
2026-05-04 12:25 44.81260 4.64972 26053 ft 324 kts 336°
2026-05-04 12:26 44.83374 4.63895 26049 ft 324 kts 336°
2026-05-04 12:26 44.85497 4.62812 26045 ft 324 kts 336°
2026-05-04 12:26 44.87616 4.61731 26044 ft 324 kts 336°
2026-05-04 12:26 44.89732 4.60652 26046 ft 323 kts 336°
2026-05-04 12:27 44.91851 4.59568 26046 ft 324 kts 336°
2026-05-04 12:27 44.93970 4.58483 26043 ft 324 kts 336°
2026-05-04 12:27 44.96092 4.57398 26040 ft 324 kts 336°
2026-05-04 12:27 44.98214 4.56311 26043 ft 325 kts 336°
2026-05-04 12:28 45.00345 4.55220 26041 ft 326 kts 336°
2026-05-04 12:28 45.02481 4.54124 26037 ft 326 kts 336°
2026-05-04 12:28 45.04615 4.53029 26031 ft 327 kts 336°
2026-05-04 12:28 45.06751 4.51935 26040 ft 326 kts 336°
2026-05-04 12:29 45.08889 4.50833 26029 ft 327 kts 336°
2026-05-04 12:29 45.11030 4.49729 26026 ft 328 kts 336°
2026-05-04 12:29 45.13170 4.48626 26029 ft 328 kts 336°
2026-05-04 12:29 45.15314 4.47522 26021 ft 328 kts 336°
2026-05-04 12:30 45.17463 4.46416 26023 ft 328 kts 336°
2026-05-04 12:30 45.19601 4.45308 26024 ft 327 kts 336°
2026-05-04 12:30 45.21732 4.44203 26022 ft 325 kts 336°
2026-05-04 12:30 45.23859 4.43103 26017 ft 324 kts 336°
2026-05-04 12:31 45.25974 4.42011 26016 ft 324 kts 336°
2026-05-04 12:31 45.28091 4.40915 26014 ft 324 kts 336°
2026-05-04 12:31 45.30205 4.39818 26014 ft 323 kts 336°
2026-05-04 12:31 45.32319 4.38721 26014 ft 324 kts 336°
2026-05-04 12:32 45.34437 4.37621 26014 ft 324 kts 336°
2026-05-04 12:32 45.38671 4.35420 26012 ft 323 kts 336°
2026-05-04 12:32 45.40760 4.34334 26012 ft 324 kts 336°
2026-05-04 12:33 45.42874 4.33233 26013 ft 323 kts 336°
2026-05-04 12:33 45.44989 4.32129 26014 ft 324 kts 336°
2026-05-04 12:33 45.47106 4.31025 26016 ft 324 kts 336°
2026-05-04 12:33 45.49223 4.29920 26014 ft 324 kts 336°
2026-05-04 12:34 45.51339 4.28815 26015 ft 324 kts 336°
2026-05-04 12:34 45.53456 4.27707 26012 ft 324 kts 336°
2026-05-04 12:34 45.55579 4.26597 26013 ft 325 kts 336°
2026-05-04 12:34 45.57708 4.25482 26014 ft 326 kts 336°
2026-05-04 12:35 45.59838 4.24365 26015 ft 326 kts 336°
2026-05-04 12:35 45.61968 4.23248 26015 ft 326 kts 336°
2026-05-04 12:35 45.64097 4.22130 26012 ft 326 kts 336°
2026-05-04 12:35 45.66225 4.21012 26012 ft 325 kts 336°
2026-05-04 12:36 45.68350 4.19894 26007 ft 325 kts 336°
2026-05-04 12:36 45.70476 4.18775 26006 ft 325 kts 336°
2026-05-04 12:36 45.72599 4.17656 26009 ft 325 kts 336°
2026-05-04 12:36 45.74727 4.16535 26002 ft 326 kts 336°
2026-05-04 12:37 45.76860 4.15411 25998 ft 327 kts 336°
2026-05-04 12:37 45.78990 4.14286 25994 ft 327 kts 336°
2026-05-04 12:37 45.81094 4.13173 25997 ft 326 kts 336°
2026-05-04 12:37 45.83222 4.12047 25991 ft 325 kts 336°
2026-05-04 12:38 45.85345 4.10923 25988 ft 326 kts 336°
2026-05-04 12:38 45.87480 4.09793 25990 ft 326 kts 336°
2026-05-04 12:38 45.89707 4.08613 25979 ft 327 kts 336°
2026-05-04 12:38 45.91740 4.07535 25989 ft 325 kts 336°
2026-05-04 12:39 45.93861 4.06405 25987 ft 325 kts 336°
2026-05-04 12:39 45.95984 4.05278 25978 ft 325 kts 336°
2026-05-04 12:39 45.98101 4.04152 25977 ft 325 kts 336°
2026-05-04 12:39 46.00222 4.03024 25978 ft 324 kts 336°
2026-05-04 12:40 46.02339 4.01895 25973 ft 324 kts 336°
2026-05-04 12:40 46.04454 4.00766 25973 ft 324 kts 336°
2026-05-04 12:40 46.06576 3.99633 25976 ft 326 kts 336°
2026-05-04 12:40 46.08701 3.98450 25971 ft 328 kts 335°
2026-05-04 12:41 46.10826 3.97230 25976 ft 328 kts 335°
2026-05-04 12:41 46.12947 3.96032 25974 ft 327 kts 335°
2026-05-04 12:41 46.15070 3.94846 25975 ft 327 kts 335°
2026-05-04 12:41 46.17188 3.93658 25972 ft 326 kts 335°
2026-05-04 12:42 46.19297 3.92466 25973 ft 325 kts 335°
2026-05-04 12:42 46.21401 3.91277 25979 ft 325 kts 335°
2026-05-04 12:42 46.23506 3.90090 25978 ft 324 kts 335°
2026-05-04 12:42 46.25606 3.88905 25980 ft 324 kts 335°
2026-05-04 12:43 46.27704 3.87720 25980 ft 324 kts 335°
2026-05-04 12:43 46.29803 3.86531 25976 ft 324 kts 335°
2026-05-04 12:43 46.31902 3.85342 25983 ft 324 kts 335°
2026-05-04 12:43 46.33999 3.84154 25985 ft 324 kts 335°
2026-05-04 12:44 46.36097 3.82965 25977 ft 324 kts 335°
2026-05-04 12:44 46.38196 3.81774 25978 ft 324 kts 335°
2026-05-04 12:44 46.40269 3.80595 25979 ft 324 kts 335°
2026-05-04 12:44 46.42361 3.79406 25983 ft 324 kts 335°
2026-05-04 12:45 46.44460 3.78212 25975 ft 324 kts 335°
2026-05-04 12:45 46.46561 3.77016 25973 ft 324 kts 335°
2026-05-04 12:45 46.48666 3.75815 25973 ft 326 kts 335°
2026-05-04 12:45 46.50782 3.74610 25976 ft 326 kts 335°
2026-05-04 12:46 46.52893 3.73405 25965 ft 326 kts 335°
2026-05-04 12:46 46.55033 3.72182 25973 ft 325 kts 335°
2026-05-04 12:46 46.57139 3.70977 25958 ft 325 kts 335°
2026-05-04 12:46 46.59244 3.69772 25962 ft 325 kts 335°
2026-05-04 12:47 46.61318 3.68584 25964 ft 324 kts 335°
2026-05-04 12:47 46.63418 3.67380 25955 ft 324 kts 335°
2026-05-04 12:47 46.65541 3.66161 25963 ft 324 kts 335°
2026-05-04 12:47 46.67639 3.64957 25956 ft 324 kts 335°
2026-05-04 12:48 46.69779 3.63920 25977 ft 327 kts 346°
2026-05-04 12:48 46.72042 3.63604 25972 ft 330 kts
2026-05-04 12:48 46.74340 3.63972 25962 ft 332 kts
2026-05-04 12:48 46.76634 3.64453 25958 ft 332 kts
2026-05-04 12:49 46.78924 3.64922 25963 ft 333 kts
2026-05-04 12:49 46.81186 3.65396 25958 ft 333 kts
2026-05-04 12:49 46.83481 3.65880 25966 ft 333 kts
2026-05-04 12:49 46.85783 3.66364 25953 ft 334 kts
2026-05-04 12:50 46.88089 3.66845 25949 ft 334 kts
2026-05-04 12:50 46.90394 3.67328 25950 ft 334 kts
2026-05-04 12:50 46.92697 3.67813 25954 ft 334 kts
2026-05-04 12:50 46.95005 3.68298 25949 ft 334 kts
2026-05-04 12:51 46.97307 3.68782 25952 ft 334 kts
2026-05-04 12:51 46.99613 3.69267 25952 ft 334 kts
2026-05-04 12:51 47.01899 3.69749 25953 ft 335 kts
2026-05-04 12:51 47.04203 3.70236 25949 ft 335 kts
2026-05-04 12:52 47.06511 3.70723 25950 ft 335 kts
2026-05-04 12:52 47.08819 3.71211 25952 ft 335 kts
2026-05-04 12:52 47.11121 3.71698 25952 ft 335 kts
2026-05-04 12:52 47.13430 3.72186 25952 ft 335 kts
2026-05-04 12:53 47.15772 3.72683 25956 ft 336 kts
2026-05-04 12:53 47.17302 3.73007 25954 ft 336 kts
2026-05-04 12:53 47.19614 3.73497 25955 ft 336 kts
2026-05-04 12:53 47.21929 3.73988 25950 ft 336 kts
2026-05-04 12:54 47.24991 3.74640 25949 ft 336 kts
2026-05-04 12:54 47.27311 3.75133 25952 ft 336 kts
2026-05-04 12:54 47.29629 3.75627 25949 ft 337 kts
2026-05-04 12:54 47.31193 3.75960 25954 ft 337 kts
2026-05-04 12:55 47.33513 3.76457 25950 ft 337 kts
2026-05-04 12:55 47.35830 3.76950 25950 ft 336 kts
2026-05-04 12:55 47.38149 3.77443 25948 ft 336 kts
2026-05-04 12:55 47.40466 3.77941 25950 ft 336 kts
2026-05-04 12:56 47.42779 3.78437 25950 ft 336 kts
2026-05-04 12:56 47.45110 3.78938 25783 ft 342 kts
2026-05-04 12:56 47.47491 3.79452 25532 ft 348 kts
2026-05-04 12:56 47.49905 3.79974 25289 ft 353 kts
2026-05-04 12:57 47.52344 3.80498 25049 ft 355 kts
2026-05-04 12:57 47.54803 3.81027 24730 ft 360 kts
2026-05-04 12:57 47.57311 3.81573 24254 ft 367 kts
2026-05-04 12:57 47.59817 3.82117 23790 ft 369 kts
2026-05-04 12:58 47.62362 3.82665 23302 ft 369 kts
2026-05-04 12:58 47.64897 3.83212 22750 ft 368 kts
2026-05-04 12:58 47.67430 3.83763 22217 ft 368 kts
2026-05-04 12:58 47.69962 3.84313 21692 ft 367 kts
2026-05-04 12:59 47.72486 3.84861 21176 ft 366 kts
2026-05-04 12:59 47.74995 3.85402 20811 ft 362 kts
2026-05-04 12:59 47.77475 3.85936 20442 ft 358 kts
2026-05-04 12:59 47.79933 3.86469 20080 ft 356 kts
2026-05-04 13:00 47.82385 3.87007 19711 ft 353 kts
2026-05-04 13:00 47.84810 3.87533 19353 ft 351 kts
2026-05-04 13:00 47.87224 3.88058 18998 ft 349 kts
2026-05-04 13:00 47.89620 3.88582 18645 ft 347 kts
2026-05-04 13:01 47.92004 3.89104 18281 ft 345 kts
2026-05-04 13:01 47.94371 3.89620 17898 ft 342 kts
2026-05-04 13:01 47.96719 3.90132 17540 ft 340 kts
2026-05-04 13:01 47.99047 3.90643 17194 ft 337 kts
2026-05-04 13:02 48.01362 3.91142 16859 ft 335 kts
2026-05-04 13:02 48.03668 3.91651 16513 ft 334 kts
2026-05-04 13:02 48.05966 3.92159 16173 ft 332 kts
2026-05-04 13:02 48.08254 3.92660 15834 ft 331 kts
2026-05-04 13:03 48.10529 3.93165 15501 ft 330 kts
2026-05-04 13:03 48.12802 3.93660 15167 ft 329 kts
2026-05-04 13:03 48.15063 3.94158 14831 ft 328 kts
2026-05-04 13:03 48.17318 3.94656 14501 ft 327 kts
2026-05-04 13:04 48.19572 3.95157 14168 ft 326 kts
2026-05-04 13:04 48.21822 3.95474 13816 ft 323 kts 356°
2026-05-04 13:04 48.24031 3.94968 13465 ft 320 kts 343°
2026-05-04 13:04 48.26084 3.93794 13118 ft 310 kts 329°
2026-05-04 13:05 48.27847 3.92032 12810 ft 300 kts 317°
2026-05-04 13:05 48.29298 3.89836 12512 ft 293 kts 310°
2026-05-04 13:05 48.30688 3.87613 12226 ft 290 kts 312°
2026-05-04 13:05 48.32093 3.85445 11923 ft 289 kts 312°
2026-05-04 13:06 48.33471 3.83269 11626 ft 287 kts 311°
2026-05-04 13:06 48.34840 3.81092 11330 ft 286 kts 312°
2026-05-04 13:06 48.36211 3.78927 11035 ft 285 kts 312°
2026-05-04 13:06 48.37571 3.76778 10740 ft 283 kts 313°
2026-05-04 13:07 48.38927 3.74630 10446 ft 283 kts 313°
2026-05-04 13:07 48.40281 3.72480 10151 ft 282 kts 313°
2026-05-04 13:07 48.41633 3.70343 9860 ft 281 kts 313°
2026-05-04 13:07 48.42980 3.68209 9538 ft 280 kts 313°
2026-05-04 13:08 48.44314 3.66086 9246 ft 279 kts 313°
2026-05-04 13:08 48.45646 3.63966 8958 ft 277 kts 313°
2026-05-04 13:08 48.46968 3.61861 8665 ft 276 kts 313°
2026-05-04 13:08 48.48283 3.59764 8392 ft 275 kts 313°
2026-05-04 13:09 48.49594 3.57674 8108 ft 274 kts 313°
2026-05-04 13:09 48.50900 3.55587 7825 ft 273 kts 314°
2026-05-04 13:09 48.52206 3.53510 7547 ft 272 kts 314°
2026-05-04 13:09 48.53502 3.51437 7269 ft 271 kts 314°
2026-05-04 13:10 48.54795 3.49363 6997 ft 271 kts 313°
2026-05-04 13:10 48.56062 3.47331 6966 ft 262 kts 313°
2026-05-04 13:10 48.57292 3.45345 6964 ft 257 kts 313°
2026-05-04 13:10 48.58513 3.43386 6963 ft 255 kts 314°
2026-05-04 13:11 48.59739 3.41433 6964 ft 257 kts 314°
2026-05-04 13:11 48.60952 3.39498 6961 ft 256 kts 314°
2026-05-04 13:11 48.62179 3.37521 6959 ft 253 kts 313°
2026-05-04 13:11 48.63376 3.35587 6963 ft 252 kts 314°
2026-05-04 13:12 48.64572 3.33664 6966 ft 251 kts 314°
2026-05-04 13:12 48.65770 3.31742 6996 ft 252 kts 314°
2026-05-04 13:12 48.66973 3.29807 6996 ft 255 kts 314°
2026-05-04 13:12 48.68202 3.27837 7001 ft 257 kts 314°
2026-05-04 13:13 48.69443 3.25835 6812 ft 266 kts 313°
2026-05-04 13:13 48.70733 3.23760 6569 ft 273 kts 314°
2026-05-04 13:13 48.72040 3.21681 6322 ft 270 kts 314°
2026-05-04 13:13 48.73294 3.19657 6053 ft 263 kts 313°
2026-05-04 13:14 48.74532 3.17591 5775 ft 259 kts 313°
2026-05-04 13:14 48.75755 3.15610 5529 ft 256 kts 314°
2026-05-04 13:14 48.76955 3.13676 5274 ft 254 kts 314°
2026-05-04 13:14 48.78167 3.11704 5017 ft 258 kts 314°
2026-05-04 13:15 48.79399 3.09714 4756 ft 260 kts 314°
2026-05-04 13:15 48.80638 3.07721 4496 ft 260 kts 314°
2026-05-04 13:15 48.81890 3.05676 4233 ft 260 kts 314°
2026-05-04 13:15 48.83095 3.03678 3963 ft 260 kts 310°
2026-05-04 13:16 48.83953 3.01243 3673 ft 260 kts 289°
2026-05-04 13:16 48.84324 2.98608 3405 ft 259 kts 274°
2026-05-04 13:16 48.84198 2.95690 3110 ft 259 kts 265°
2026-05-04 13:16 48.84065 2.93174 3000 ft 253 kts 268°
2026-05-04 13:17 48.83952 2.90545 2992 ft 247 kts 266°
2026-05-04 13:17 48.83796 2.87972 2989 ft 244 kts 265°
2026-05-04 13:17 48.83658 2.85417 2986 ft 241 kts 266°
2026-05-04 13:17 48.83526 2.82886 2987 ft 240 kts 266°
2026-05-04 13:18 48.83392 2.80359 2982 ft 239 kts 266°
2026-05-04 13:18 48.83258 2.77845 2982 ft 239 kts 266°
2026-05-04 13:18 48.83120 2.75333 2984 ft 239 kts 266°
2026-05-04 13:18 48.82986 2.72824 2986 ft 238 kts 266°
2026-05-04 13:19 48.82849 2.70322 2987 ft 239 kts 266°
2026-05-04 13:19 48.82705 2.67764 2985 ft 247 kts 266°
2026-05-04 13:19 48.82569 2.65157 2987 ft 248 kts 267°
2026-05-04 13:19 48.82437 2.62556 2983 ft 249 kts 265°
2026-05-04 13:20 48.82273 2.59923 2985 ft 252 kts 265°
2026-05-04 13:20 48.82133 2.57261 2985 ft 254 kts 266°
2026-05-04 13:20 48.81990 2.54587 2982 ft 255 kts 266°
2026-05-04 13:20 48.81836 2.51909 2987 ft 255 kts 266°
2026-05-04 13:21 48.81688 2.49228 2984 ft 255 kts 266°
2026-05-04 13:21 48.81538 2.46537 2990 ft 256 kts 265°
2026-05-04 13:21 48.81382 2.43842 2985 ft 256 kts 265°
2026-05-04 13:21 48.81224 2.41150 2986 ft 256 kts 265°
2026-05-04 13:22 48.81125 2.38461 3001 ft 255 kts 276°
2026-05-04 13:22 48.81744 2.35974 3011 ft 255 kts 306°
2026-05-04 13:22 48.82804 2.33809 2996 ft 254 kts 304°
2026-05-04 13:22 48.83579 2.31598 2982 ft 222 kts 293°
2026-05-04 13:23 48.84119 2.29591 2984 ft 193 kts 294°
2026-05-04 13:23 48.84688 2.27687 2982 ft 203 kts 296°
2026-05-04 13:23 48.85322 2.25760 2982 ft 201 kts 298°
2026-05-04 13:23 48.85933 2.23886 2980 ft 196 kts 297°
2026-05-04 13:24 48.86519 2.22037 2985 ft 192 kts 296°
2026-05-04 13:24 48.87280 2.20414 3007 ft 189 kts 325°
2026-05-04 13:24 48.88476 2.19675 3008 ft 187 kts 355°
2026-05-04 13:25 48.90688 2.21196 3005 ft 178 kts 57°
2026-05-04 13:25 48.91194 2.22852 2894 ft 165 kts 70°
2026-05-04 13:25 48.91611 2.24385 2689 ft 148 kts 69°
2026-05-04 13:25 48.91993 2.25764 2508 ft 134 kts 69°
2026-05-04 13:26 48.92335 2.27021 2333 ft 123 kts 69°
2026-05-04 13:26 48.92649 2.28172 2175 ft 111 kts 69°
2026-05-04 13:26 48.92936 2.29223 2026 ft 102 kts 70°
2026-05-04 13:26 48.93191 2.30163 1892 ft 91 kts 69°
2026-05-04 13:27 48.93444 2.31061 1767 ft 99 kts 68°
2026-05-04 13:27 48.93694 2.32030 1642 ft 100 kts 69°
2026-05-04 13:27 48.93971 2.33044 1507 ft 109 kts 69°
2026-05-04 13:27 48.94265 2.34155 1353 ft 116 kts 69°
2026-05-04 13:28 48.94564 2.35285 1189 ft 109 kts 70°
2026-05-04 13:28 48.94838 2.36296 1047 ft 102 kts 68°
2026-05-04 13:28 48.95014 2.36947 948 ft 97 kts 69°
2026-05-04 13:28 48.95271 2.37888 821 ft 100 kts 68°
2026-05-04 13:29 48.95538 2.38891 678 ft 98 kts 69°
2026-05-04 13:29 48.95778 2.39795 532 ft 87 kts 70°
2026-05-04 13:29 48.96011 2.40647 406 ft 89 kts 68°
2026-05-04 13:29 48.96258 2.41556 282 ft 95 kts 68°
2026-05-04 13:30 48.96492 2.42445 188 ft 89 kts 67°
2026-05-04 13:30 48.96710 2.43250 170 ft 68 kts 67°
2026-05-04 13:30 48.96849 2.43756 174 ft 39 kts 69°
2026-05-04 13:30 48.96932 2.44081 178 ft 23 kts 71°
2026-05-04 13:31 48.96931 2.44288 179 ft 21 kts 117°
2026-05-04 13:31 48.96816 2.44414 178 ft 22 kts 169°
2026-05-04 13:31 48.96656 2.44488 173 ft 25 kts 162°
2026-05-04 13:31 48.96630 2.44500 173 ft 0 kts 162°
2026-05-04 13:32 48.96626 2.44502 173 ft 4 kts 164°
2026-05-04 13:32 48.96515 2.44541 173 ft 25 kts 175°
2026-05-04 13:32 48.96349 2.44530 171 ft 21 kts 214°
2026-05-04 13:32 48.96267 2.44367 171 ft 21 kts 266°
2026-05-04 13:33 48.96231 2.44137 169 ft 23 kts 253°
2026-05-04 13:33 48.96196 2.43982 168 ft 8 kts 197°
2026-05-04 13:33 48.96166 2.43968 168 ft 3 kts 202°
2026-05-04 13:33 48.96022 2.43866 165 ft 29 kts 206°
2026-05-04 13:34 48.95869 2.43761 163 ft 25 kts 207°
2026-05-04 13:34 48.95725 2.43681 161 ft 13 kts 158°
2026-05-04 13:34 48.95668 2.43734 161 ft 8 kts 219°
2026-05-04 13:34 48.95665 2.43729 161 ft 0 kts 244°